JAL510 RJCC-RJTT

Flight info

Callsign JAL510
Flight time N/A
Altitude 40000
Route TOBBY Y10 GODIN
Aircraft A359/H-SDE2E3GHIJ3J4J5LM1ORWXY/LB1D1

Departure

Time N/A
Airport New Chitose Airport (RJCC)

Arrival

Time 2026-05-01 08:06
Airport Tokyo Haneda International Airport (RJTT)
Time Latitude Longitude Altitude Speed Heading
2026-05-01 07:23 38.52793 140.86302 39501 ft 381 kts 196°
2026-05-01 07:24 38.45075 140.84028 39498 ft 381 kts 196°
2026-05-01 07:24 38.39916 140.82512 39500 ft 381 kts 196°
2026-05-01 07:25 38.34752 140.80997 39499 ft 381 kts 196°
2026-05-01 07:25 38.29586 140.79482 39498 ft 381 kts 196°
2026-05-01 07:26 38.24455 140.77981 39485 ft 380 kts 196°
2026-05-01 07:26 38.19299 140.76479 39496 ft 380 kts 196°
2026-05-01 07:27 38.14143 140.74972 39490 ft 380 kts 196°
2026-05-01 07:27 38.08987 140.73467 39500 ft 380 kts 196°
2026-05-01 07:28 38.03871 140.71978 39487 ft 380 kts 196°
2026-05-01 07:28 37.98724 140.70483 39485 ft 379 kts 196°
2026-05-01 07:29 37.93577 140.68991 39463 ft 379 kts 196°
2026-05-01 07:29 37.88428 140.67498 39464 ft 380 kts 195°
2026-05-01 07:30 37.83271 140.66007 39460 ft 381 kts 195°
2026-05-01 07:30 37.78141 140.64525 39458 ft 380 kts 195°
2026-05-01 07:31 37.72979 140.63038 39458 ft 380 kts 195°
2026-05-01 07:31 37.65241 140.60805 38984 ft 379 kts 195°
2026-05-01 07:32 37.60117 140.59329 38518 ft 376 kts 195°
2026-05-01 07:32 37.57602 140.58606 38309 ft 375 kts 194°
2026-05-01 07:33 37.52544 140.57154 37792 ft 372 kts 194°
2026-05-01 07:33 37.50031 140.56433 37367 ft 368 kts 194°
2026-05-01 07:33 37.45063 140.55012 36141 ft 365 kts 194°
2026-05-01 07:34 37.42589 140.54304 35497 ft 364 kts 194°
2026-05-01 07:34 37.37639 140.52887 34152 ft 365 kts 194°
2026-05-01 07:34 37.35182 140.52185 33403 ft 368 kts 194°
2026-05-01 07:35 37.32679 140.51470 32561 ft 370 kts 194°
2026-05-01 07:35 37.30162 140.50752 31760 ft 372 kts 194°
2026-05-01 07:35 37.27642 140.50034 31044 ft 371 kts 194°
2026-05-01 07:35 37.25138 140.49322 30536 ft 366 kts 193°
2026-05-01 07:36 37.22660 140.48625 29981 ft 364 kts 193°
2026-05-01 07:36 37.20196 140.47926 29398 ft 361 kts 193°
2026-05-01 07:36 37.17762 140.47233 28793 ft 357 kts 193°
2026-05-01 07:36 37.15383 140.46554 28244 ft 353 kts 194°
2026-05-01 07:37 37.10648 140.45207 27166 ft 345 kts 194°
2026-05-01 07:37 37.08323 140.44548 26638 ft 342 kts 194°
2026-05-01 07:37 37.06001 140.43890 26098 ft 342 kts 194°
2026-05-01 07:38 37.03684 140.43234 25580 ft 341 kts 195°
2026-05-01 07:38 37.01376 140.42581 25054 ft 340 kts 195°
2026-05-01 07:38 36.96777 140.41280 23993 ft 338 kts 195°
2026-05-01 07:39 36.94485 140.40633 23447 ft 337 kts 195°
2026-05-01 07:39 36.92201 140.39990 22875 ft 336 kts 195°
2026-05-01 07:39 36.87706 140.38730 21734 ft 332 kts 196°
2026-05-01 07:40 36.85458 140.38096 21181 ft 330 kts 196°
2026-05-01 07:40 36.83221 140.37464 20635 ft 328 kts 196°
2026-05-01 07:40 36.81003 140.36838 20088 ft 326 kts 196°
2026-05-01 07:40 36.78800 140.36217 19545 ft 325 kts 196°
2026-05-01 07:41 36.76598 140.35597 18982 ft 324 kts 196°
2026-05-01 07:41 36.74394 140.34979 18413 ft 325 kts 196°
2026-05-01 07:41 36.69955 140.33933 17217 ft 328 kts 193°
2026-05-01 07:42 36.67696 140.33512 16605 ft 328 kts 192°
2026-05-01 07:42 36.65442 140.33103 16029 ft 327 kts 192°
2026-05-01 07:42 36.63192 140.32688 15450 ft 327 kts 192°
2026-05-01 07:42 36.60939 140.32264 15171 ft 331 kts 193°
2026-05-01 07:43 36.58631 140.31805 14957 ft 339 kts 193°
2026-05-01 07:43 36.56321 140.31344 14745 ft 333 kts 193°
2026-05-01 07:43 36.51718 140.30421 14233 ft 340 kts 193°
2026-05-01 07:44 36.47039 140.29485 13769 ft 341 kts 192°
2026-05-01 07:44 36.42625 140.27600 13298 ft 335 kts 215°
2026-05-01 07:45 36.40933 140.25644 13053 ft 334 kts 230°
2026-05-01 07:45 36.39773 140.23150 12789 ft 337 kts 245°
2026-05-01 07:45 36.39122 140.20426 12610 ft 328 kts 252°
2026-05-01 07:45 36.38614 140.17740 12474 ft 312 kts 252°
2026-05-01 07:46 36.38025 140.15227 12350 ft 294 kts 244°
2026-05-01 07:46 36.37127 140.13040 12212 ft 277 kts 233°
2026-05-01 07:46 36.34564 140.09784 11965 ft 258 kts 216°
2026-05-01 07:47 36.32970 140.08788 11803 ft 260 kts 198°
2026-05-01 07:47 36.31165 140.08715 11523 ft 264 kts 178°
2026-05-01 07:47 36.29364 140.08957 11160 ft 265 kts 182°
2026-05-01 07:47 36.27524 140.09096 10797 ft 265 kts 182°
2026-05-01 07:48 36.23846 140.09380 10277 ft 265 kts 181°
2026-05-01 07:48 36.22007 140.09535 10040 ft 265 kts 181°
2026-05-01 07:48 36.20172 140.09694 9799 ft 264 kts 181°
2026-05-01 07:49 36.18337 140.09856 9566 ft 264 kts 181°
2026-05-01 07:49 36.14676 140.10180 9061 ft 263 kts 181°
2026-05-01 07:49 36.12849 140.10343 8807 ft 263 kts 181°
2026-05-01 07:50 36.11054 140.10504 8553 ft 262 kts 181°
2026-05-01 07:50 36.07434 140.10828 8050 ft 260 kts 181°
2026-05-01 07:50 36.05631 140.10990 7814 ft 259 kts 181°
2026-05-01 07:51 36.03840 140.11151 7560 ft 257 kts 181°
2026-05-01 07:51 36.02063 140.11309 7308 ft 256 kts 181°
2026-05-01 07:51 36.00289 140.11467 7102 ft 255 kts 181°
2026-05-01 07:52 35.96792 140.11778 6705 ft 253 kts 181°
2026-05-01 07:52 35.95071 140.11931 6519 ft 252 kts 181°
2026-05-01 07:52 35.93335 140.12085 6329 ft 251 kts 181°
2026-05-01 07:53 35.89877 140.12393 5953 ft 249 kts 181°
2026-05-01 07:53 35.88152 140.12546 5767 ft 248 kts 181°
2026-05-01 07:53 35.86441 140.12698 5568 ft 247 kts 181°
2026-05-01 07:53 35.84729 140.12850 5364 ft 246 kts 181°
2026-05-01 07:54 35.81360 140.13150 4990 ft 244 kts 181°
2026-05-01 07:55 35.76300 140.13598 4774 ft 243 kts 181°
2026-05-01 07:55 35.72933 140.13941 4612 ft 245 kts 177°
2026-05-01 07:56 35.68656 140.17462 4483 ft 241 kts 144°
2026-05-01 07:56 35.66411 140.20166 4491 ft 217 kts 147°
2026-05-01 07:57 35.65225 140.21220 4488 ft 203 kts 162°
2026-05-01 07:57 35.62714 140.22408 4500 ft 191 kts 171°
2026-05-01 07:58 35.60219 140.22887 4493 ft 178 kts 197°
2026-05-01 07:58 35.58304 140.21245 4314 ft 173 kts 233°
2026-05-01 07:59 35.57270 140.18542 4091 ft 180 kts 249°
2026-05-01 07:59 35.56959 140.15414 3986 ft 188 kts 260°
2026-05-01 08:00 35.56966 140.09190 3991 ft 169 kts 260°
2026-05-01 08:01 35.56962 140.04879 3572 ft 167 kts 260°
2026-05-01 08:01 35.56958 140.03460 3345 ft 165 kts 260°
2026-05-01 08:01 35.56956 140.02049 3121 ft 165 kts 261°
2026-05-01 08:02 35.56954 139.99236 2689 ft 164 kts 260°
2026-05-01 08:02 35.56954 139.97836 2466 ft 164 kts 260°
2026-05-01 08:03 35.56960 139.95173 2040 ft 146 kts 259°
2026-05-01 08:03 35.56960 139.93940 1838 ft 144 kts 259°
2026-05-01 08:03 35.56955 139.91463 1461 ft 146 kts 258°
2026-05-01 08:04 35.56966 139.89170 1151 ft 126 kts 256°
2026-05-01 08:04 35.56857 139.87038 853 ft 130 kts 254°
2026-05-01 08:05 35.56419 139.84863 687 ft 131 kts 232°
2026-05-01 08:05 35.55786 139.84086 532 ft 128 kts 215°
2026-05-01 08:05 35.55107 139.83382 374 ft 127 kts 218°
2026-05-01 08:06 35.53796 139.81911 63 ft 127 kts 218°
2026-05-01 08:06 35.53055 139.81082 50 ft 18 kts 223°
2026-05-01 08:07 35.52928 139.80838 48 ft 17 kts 247°
2026-05-01 08:07 35.52933 139.80575 52 ft 18 kts 324°
2026-05-01 08:08 35.53045 139.80495 55 ft 20 kts 330°
2026-05-01 08:08 35.53341 139.80285 41 ft 27 kts 330°
2026-05-01 08:09 35.53632 139.80077 29 ft 22 kts 330°
2026-05-01 08:09 35.53773 139.79978 30 ft 25 kts 330°
2026-05-01 08:09 35.53930 139.79867 31 ft 24 kts 329°
2026-05-01 08:10 35.54165 139.79699 27 ft 18 kts 329°
2026-05-01 08:10 35.54319 139.79590 27 ft 16 kts 330°
2026-05-01 08:11 35.54519 139.79449 30 ft 12 kts 330°
2026-05-01 08:11 35.54561 139.79344 15 ft 7 kts 246°
2026-05-01 08:12 35.54478 139.79165 42 ft 17 kts 239°
2026-05-01 08:12 35.54421 139.79046 45 ft 15 kts 239°
2026-05-01 08:12 35.54319 139.78832 36 ft 15 kts 239°
2026-05-01 08:13 35.54267 139.78721 32 ft 14 kts 240°
2026-05-01 08:13 35.54222 139.78624 31 ft 13 kts 246°
2026-05-01 08:13 35.54361 139.78451 30 ft 17 kts 330°
2026-05-01 08:14 35.54428 139.78405 29 ft 16 kts 330°
2026-05-01 08:14 35.54519 139.78340 30 ft 14 kts 329°
2026-05-01 08:14 35.54600 139.78282 30 ft 13 kts 330°
2026-05-01 08:14 35.54690 139.78218 30 ft 10 kts 330°
2026-05-01 08:15 35.54746 139.78178 30 ft 9 kts 330°
2026-05-01 08:15 35.54821 139.78178 29 ft 4 kts 65°
2026-05-01 08:15 35.54828 139.78205 29 ft 2 kts 70°
2026-05-01 08:16 35.54829 139.78208 29 ft 0 kts 70°
2026-05-01 08:16 35.54832 139.78217 29 ft 2 kts 70°
2026-05-01 08:16 35.54836 139.78231 30 ft 0 kts 71°